Find OneWeb SL0067

NORAD ID: 45425 Int'l Des: 2020-020 Owner: ONEWEB Country: UK Constellation: oneweb operational
LEOCIRCULARPOLARONEWEB_TYPE

リアルタイム位置

3D地球を読み込み中...

OneWeb SL0067について

説明を読み込み中...

次回通過

Passes for default location (London). Set your location on the main map for personalized predictions.

高度履歴

Loading altitude history...

軌道要素

1 45425U 20020B 26125.45857839 -.00000436 00000-0 -12664-2 0 9995
2 45425 87.8943 29.4822 0001873 87.1577 272.9765 13.11423012297130
Epoch: May 5, 2026 • Age: 13 hours

現在のステータス

高度 1222.2 km
速度 7.24 km/s
衛星直下点 -8.82°S, 168.51°E
打ち上げ日 Mar 21, 2020
運用期間 6.1 years
タイプ internet

技術仕様

分類 Payload
質量 148.00 kg
乾燥質量 140.00 kg
総質量 148.00 kg
長さ 1.30 m
直径 1.00 m
スパン 5.00 m
形状 Trapezoid+2 pan
製造者 ONEWUS
バスタイプ ARROW
フェーズステータス In Orbit
所有者/国 ONEWEB/UK

Most Searched